Montague, CA

9:36 PM PST on February 24, 2017 (GMT -0800)
Siskiyou County

Weather History for KSIY - October, 2014

Change the Weather History Date:

Thursday, October 9, 2014

  Actual Average Record
Temperature  
Mean Temperature 59 °F 55 °F  
Max Temperature 78 °F 72 °F 90 °F (1996)
Min Temperature 39 °F 37 °F 27 °F (1949)
Degree Days  
Heating Degree Days 6 10  
Month to date heating degree days 42 83  
Since 1 July heating degree days 88 225  
Cooling Degree Days 0 0  
Month to date cooling degree days 0 0  
Year to date cooling degree days 913 542  
Growing Degree Days 8 (Base 50)    
Moisture  
Dew Point 36 °F    
Average Humidity 50    
Maximum Humidity 79    
Minimum Humidity 18    
Precipitation  
Precipitation 0.00 in 0.02 in 0.90 in (1996)
Month to date precipitation 0.00 0.14  
Year to date precipitation 7.55 11.78  
Sea Level Pressure  
Sea Level Pressure 30.05 in    
Wind  
Wind Speed 2 mph (ENE)    
Max Wind Speed 9 mph    
Max Gust Speed 10 mph    
Visibility 10 miles    
Events      
T = Trace of Precipitation, MM = Missing Value Source: NWS Daily Summary

Daily Weather History Graph

Daily Weather History Graph

Search for Another Location

Airport or City:

Trip Planner

Search our weather history database for the weather conditions in past years. The results will help you decide how hot, cold, wet, or windy it might be!

Date:

Astronomy

Oct. 09, 2014 Rise Set
Actual Time 7:15 AM PDT 6:37 PM PDT
Civil Twilight 6:47 AM PDT 7:05 PM PDT
Nautical Twilight 6:15 AM PDT 7:37 PM PDT
Astronomical Twilight 5:43 AM PDT 8:10 PM PDT
Moon 7:36 PM PDT (10/9) 8:37 AM PDT (10/9)
Length of Visible Light 12h 18m
Length of Day
11h 22m
Full, 98% of the Moon is Illuminated
Oct 9
Full
Oct 15
Last Quarter
Oct 23
New
Oct 30
First Quarter
Nov 6
Full

Hourly Weather History & Observations

Time (PDT) Temp. Windchill Dew Point Humidity Pressure Visibility Wind Dir Wind Speed Gust Speed Precip Events Conditions
12:53 AM 48.0 °F - 35.1 °F 61% 30.03 in 10.0 mi Calm Calm - N/A   Clear
1:53 AM 46.9 °F - 36.0 °F 66% 30.02 in 10.0 mi NE 4.6 mph - N/A   Clear
2:53 AM 48.9 °F - 36.0 °F 61% 30.02 in 10.0 mi NNE 3.5 mph - N/A   Clear
3:53 AM 44.1 °F - 34.0 °F 68% 30.02 in 10.0 mi Calm Calm - N/A   Clear
4:53 AM 43.0 °F - 35.1 °F 74% 30.03 in 10.0 mi Calm Calm - N/A   Clear
5:53 AM 43.0 °F - 35.1 °F 74% 30.04 in 10.0 mi Calm Calm - N/A   Clear
6:53 AM 41.0 °F - 34.0 °F 76% 30.07 in 10.0 mi Calm Calm - N/A   Clear
7:53 AM 39.9 °F 37.8 °F 33.1 °F 77% 30.09 in 10.0 mi NE 3.5 mph - N/A   Clear
8:53 AM 51.1 °F - 39.9 °F 66% 30.10 in 10.0 mi Calm Calm - N/A   Clear
9:53 AM 55.9 °F - 39.9 °F 55% 30.10 in 10.0 mi Calm Calm - N/A   Clear
10:53 AM 61.0 °F - 41.0 °F 48% 30.10 in 10.0 mi Calm Calm - N/A   Clear
11:53 AM 66.0 °F - 41.0 °F 40% 30.08 in 10.0 mi Calm Calm - N/A   Clear
12:53 PM 69.1 °F - 41.0 °F 36% 30.06 in 10.0 mi Calm Calm - N/A   Clear
1:53 PM 73.0 °F - 39.9 °F 30% 30.03 in 10.0 mi Calm Calm - N/A   Clear
2:53 PM 75.0 °F - 36.0 °F 24% 30.00 in 10.0 mi SSE 3.5 mph - N/A   Clear
3:53 PM 75.9 °F - 28.9 °F 18% 30.00 in 10.0 mi SSE 3.5 mph - N/A   Clear
4:53 PM 77.0 °F - 30.0 °F 18% 29.99 in 10.0 mi Calm Calm - N/A   Clear
5:53 PM 75.9 °F - 34.0 °F 22% 29.99 in 10.0 mi Calm Calm - N/A   Clear
6:53 PM 63.0 °F - 39.0 °F 41% 30.04 in 10.0 mi NNW 5.8 mph - N/A   Clear
7:53 PM 64.9 °F - 37.9 °F 37% 30.05 in 10.0 mi NNE 4.6 mph - N/A   Clear
8:53 PM 57.9 °F - 36.0 °F 44% 30.06 in 10.0 mi NNE 9.2 mph - N/A   Clear
9:53 PM 55.9 °F - 37.0 °F 49% 30.07 in 10.0 mi Calm Calm - N/A   Clear
10:53 PM 53.1 °F - 36.0 °F 52% 30.08 in 10.0 mi South 3.5 mph - N/A   Clear
11:53 PM 51.1 °F - 34.0 °F 52% 30.09 in 10.0 mi Calm Calm - N/A   Clear